Regional Weather Roundup
Issued by NWS

Home | Current Version | Previous Version | Graphics & Text | Print | Product List | Glossary On
Versions: 1 2 3 4 5 6 7 8 9 10 11 12 13 14 15 16 17 18 19 20 21 22 23 24 25 26 27 28 29 30 31 32 33 34 35 36 37 38 39 40 41 42 43 44 45 46 47 48 49 50
000
ASUS45 KBOI 302110
RWRID

IDAHO REGIONAL WEATHER ROUNDUP
NATIONAL WEATHER SERVICE BOISE ID
300 PM MDT TUE JUN 30 2015

NOTE: "FAIR" INDICATES FEW OR NO CLOUDS BELOW 12000 FEET
WITH NO SIGNIFICANT WEATHER AND/OR OBSTRUCTIONS TO VISIBILITY

IDZ012-014-302200-
SOUTHWEST IDAHO


CITY           SKY/WX    TMP DP  RH WIND       PRES   REMARKS
BOISE          SUNNY     98  54  22 W9G22     29.96F HX  96
CALDWELL       SUNNY     99  55  23 NW9       29.95F HX  97
MOUNTAIN HOME  SUNNY    101  53  19 VRB2      29.95F HX  99
$$

IDZ016-017-302200-
SOUTHCENTRAL IDAHO


CITY           SKY/WX    TMP DP  RH WIND       PRES   REMARKS
BURLEY         SUNNY     94  51  23 VRB6      30.04F HX  91
JEROME         SUNNY     94  51  23 W7        30.05F HX  91
TWIN FALLS     SUNNY     96  53  23 NW9       30.03F HX  93
$$

IDZ019>023-302200-
SOUTHEAST IDAHO


CITY           SKY/WX    TMP DP  RH WIND       PRES   REMARKS
IDAHO FALLS    MOSUNNY   84  62  47 W3        30.10F
POCATELLO      SUNNY     92  52  25 S6        30.07F
REXBURG        MOSUNNY   85  53  33 W3        30.11F
$$

IDZ006-010-011-018-031-032-302200-
CENTRAL IDAHO MOUNTAINS


CITY           SKY/WX    TMP DP  RH WIND       PRES   REMARKS
MCCALL         MOSUNNY   89  45  21 NW10      30.12F
HAILEY         MOSUNNY   82  61  47 S9        30.14F
STANLEY          N/A     87  43  21 NW10G22   30.24F
SALMON         SUNNY     90  57  33 W5        29.99F
CHALLIS        MOSUNNY   89  47  23 SE6       30.08F
$$

IDZ002-004-006-007-026-302200-
NORTHERN IDAHO


CITY           SKY/WX    TMP DP  RH WIND       PRES   REMARKS
LEWISTON       SUNNY     96  47  18 VRB5G17   29.95F HX  92
LOWELL           N/A    100  57  23 VRB3      29.92F HX  99
COEUR D`ALENE  SUNNY     91  48  22 SW13      30.00F
MULLAN PASS    SUNNY     75  45  34 VRB6      30.24F
$$



USA.gov is the U.S. government's official web portal to all federal, state and local government web resources and services.